Weather in Bogoslovka

Russia / Omsk Oblast     55°02′04″N   73°43′30″E
temp.,
°C
wind,
m/s
gust,
m/s
humid.,
%
clouds,
%
prec.,
mm/h
press.,
hPa
HPBL,
m
19 may, wed
wed1900:00+14nne4891100 4.6 1011355
03:00+13nne6986100 0.0 1012640
06:00+11nne6118048 0.4 1014758
09:00+13nne795990 0.0 10151109
12:00+17nne783920 0.1 10162064
15:00+18n783417 0.0 10172314
18:00+17n793574 0.0 10172314
21:00+13nne474765 0.0 1019222
20 may, thu
thu2000:00+10nnw225296 0.0 102026
03:00+8nnw510595 0.0 1020243
06:00+6n510675 0.0 1022389
09:00+10nne564922 0.0 10231030
12:00+13n563485 0.0 10231494
15:00+14nnw5637100 0.0 10221770
18:00+10nnw3465100 0.2 1023433
21:00+9s2374100 0.3 1022209
21 may, fri
fri2100:00+9sse4684100 0.9 1021294
03:00+9sse5108999 2.8 1018330
06:00+10sse478599 2.9 1017244
09:00+12se447380 0.1 1018377
12:00+16e436130 0.1 1019826
15:00+17e435550 0.0 10201179
18:00+17e335541 0.0 10211139
21:00+12ese47725 0.0 1023171
22 may, sat
sat2200:00+10se36775 0.0 1024130
03:00+9s37817 0.0 1024139
06:00+9s378084 0.0 1025199
09:00+14ssw45605 0.0 1024526
12:00+19s45465 0.0 1024895
15:00+23s45375 0.0 10221154
18:00+24ssw45355 0.0 10221326
21:00+18s46535 0.0 102176
23 may, sun
sun2300:00+16s513460 0.0 1021244
03:00+14s412445 0.0 1021239
06:00+14s51342100 0.0 1020263
09:00+19ssw71139100 0.0 1019489
12:00+24sw5642100 0.0 1019961
15:00+22n4554100 0.0 1018111
18:00+22e2256100 0.1 1017258
21:00+15nw61091100 4.9 1018467